Location: Running Springs
(34.2078°N, 117.1092°W)
Time: 15:09:34
(UTC+00:00)

H-2A R/B - Pass Details

Date: 13 April 2024
Orbit: 732 x 833 km, 98.2° (Epoch: 19 May)

Event Time Altitude Azimuth Distance (km) Brightness Sun altitude
Rises 12:00:32 0° 16° (NNE) 3,194 5.8 -16.3°
Reaches altitude 10° 12:02:50 10° 19° (NNE) 2,278 5.0 -15.8°
Maximum altitude 12:07:48 65° 101° (E) 837 2.4 -14.9°
Drops below altitude 10° 12:12:54 10° 184° (S) 2,326 4.2 -13.9°
Sets 12:15:15 0° 187° (S) 3,267 5.0 -13.5°
